Regional Weather Roundup
Issued by NWS Albany, NY

Home | Current Version | Previous Version | Graphics & Text | Print | Product List | Glossary On
Versions: 1 2 3 4 5 6 7 8 9 10 11 12 13 14 15 16 17 18 19 20 21 22 23 24 25 26 27
000
ASUS41 KALY 300510
RWRALY

NEW YORK STATE HOURLY WEATHER ROUNDUP
NATIONAL WEATHER SERVICE ALBANY NY
100 AM EDT MON MAY 30 2016

NOTE: "FAIR" INDICATES FEW OR NO CLOUDS BELOW 12,000 FEET WITH NO
SIGNIFICANT WEATHER AND/OR NO OBSTRUCTIONS TO VISIBILITY.

NYZ032-033-038>043-046>054-057>066-NYZ062>081-082-084-300600-
EAST


CITY           SKY/WX    TMP DP  RH WIND       PRES   REMARKS
ALBANY         CLOUDY    71  66  84 S7        29.99F
GLENS FALLS    PTCLDY    68  65  90 W3        29.99F
POUGHKEEPSIE   CLOUDY    74  67  78 SE6       30.02F
NEWBURGH       LGT RAIN  72  70  94 VRB5      30.05S
MONTGOMERY     LGT RAIN  71  68  90 CALM      30.03F
WHITE PLAINS   LGT RAIN  68  66  93 SE6       30.05F FOG
ISLIP          LGT RAIN  67  66  97 S3        30.06F
NEW YORK CITY  LGT RAIN  71  71 100 S7        30.04F
CENTRAL PARK   CLOUDY    71  66  84 CALM      30.07F
$$

NYZ005>009-017-018-044>046-055-056-300600-
CENTRAL


CITY           SKY/WX    TMP DP  RH WIND       PRES   REMARKS
FULTON         LGT RAIN  68  64  87 VRB7      29.97F
SYRACUSE       LGT RAIN  67  63  87 SE9       29.98F
ROME           LGT RAIN  67  67 100 E7        30.02F FOG
ELMIRA         CLOUDY    66  63  90 CALM      30.03S
BINGHAMTON     LGT RAIN  66  64  93 NW5       30.06S
MONTICELLO     CLOUDY    66  63  88 S3        30.09S
$$

NYZ026>034-041>043-087-300600-
NORTH


CITY           SKY/WX    TMP DP  RH WIND       PRES   REMARKS
WATERTOWN      CLOUDY    71  60  68 S8        29.94F
FORT DRUM      NOT AVBL
MASSENA        MOCLDY    72  62  71 SW7       29.91F
SARANAC LAKE   CLOUDY    64  62  93 SW7       29.99F
PLATTSBURGH    CLOUDY    67  66  97 S3        29.94F
$$

NYZ001>004-010>016-019>021-085-300600-
WEST


CITY           SKY/WX    TMP DP  RH WIND       PRES   REMARKS
NIAGARA FALLS  PTCLDY    69  59  70 S8        29.93F
BUFFALO        MOCLDY    69  55  60 S7        29.95F
DUNKIRK        LGT RAIN  72  55  55 SW14G23   29.96F
JAMESTOWN      MOCLDY    64  54  68 S12       30.03S
WELLSVILLE     MOCLDY    64  57  78 S6        30.07F
ROCHESTER      CLOUDY    66  63  90 SW7       29.97F
PENN YAN       CLOUDY    66  62  87 S8        30.00F
$$

             KEY
       WCI = WIND CHILL INDEX
       VSB = VISIBILITY
       HX  = HEAT INDEX
$$




USA.gov is the U.S. government's official web portal to all federal, state and local government web resources and services.